When you browse on this site, cookies collect data to enhance your experience and personalize the content and advertising you see.
Visit our Privacy Policy to learn more. By continuing to use the site, you agree to this use of cookies and data.

Stündliche Wetter Hlybochok

Heute, 7 Juli, Dienstag

Zeit Temperatur Niederschläge Wind Luftdruck Luftfeuchtigkeit
00:00 +23°C° 0 mm 1 m/S 731 mmHg 89%
01:00 +20°C° 0 mm 0 m/S 731 mmHg 91%
02:00 +20°C° 0 mm 0 m/S 731 mmHg 92%
03:00 +19°C° 0 mm 0 m/S 730 mmHg 94%
04:00 +19°C° 0 mm 3 m/S 730 mmHg 99%
05:00 +17°C° 0.5 mm 6 m/S 731 mmHg 96%
06:00 +17°C° 0.5 mm 7 m/S 731 mmHg 95%
07:00 +17°C° 0 mm 7 m/S 732 mmHg 93%
08:00 +19°C° 0 mm 6 m/S 732 mmHg 92%
09:00 +17°C° 0 mm 7 m/S 732 mmHg 90%
10:00 +16°C° 0 mm 8 m/S 732 mmHg 93%
11:00 +15°C° 0 mm 7 m/S 733 mmHg 97%
12:00 +14°C° 0.2 mm 7 m/S 733 mmHg 98%
13:00 +13°C° 0.3 mm 8 m/S 734 mmHg 97%
14:00 +14°C° 0.1 mm 7 m/S 734 mmHg 95%
15:00 +15°C° 0 mm 7 m/S 735 mmHg 93%
16:00 +14°C° 0.8 mm 5 m/S 734 mmHg 98%
17:00 +14°C° 0.6 mm 4 m/S 734 mmHg 97%
18:00 +15°C° 0 mm 5 m/S 735 mmHg 94%
19:00 +15°C° 0 mm 4 m/S 735 mmHg 96%
20:00 +14°C° 0.3 mm 3 m/S 735 mmHg 97%
21:00 +15°C° 0 mm 1 m/S 736 mmHg 99%
22:00 +14°C° 0 mm 3 m/S 736 mmHg 97%
23:00 +14°C° 0 mm 4 m/S 736 mmHg 99%

Morgen, 8 Juli, Mittwoch

Zeit Temperatur Niederschläge Wind Luftdruck Luftfeuchtigkeit
00:00 +13°C° 0 mm 4 m/S 736 mmHg 97%
01:00 +13°C° 0 mm 4 m/S 736 mmHg 98%
02:00 +12°C° 0 mm 4 m/S 737 mmHg 97%
03:00 +12°C° 0 mm 4 m/S 737 mmHg 98%
04:00 +11°C° 0 mm 4 m/S 737 mmHg 99%
05:00 +11°C° 0 mm 4 m/S 737 mmHg 99%
06:00 +12°C° 0 mm 4 m/S 737 mmHg 98%
07:00 +13°C° 0 mm 4 m/S 738 mmHg 97%
08:00 +14°C° 0 mm 4 m/S 738 mmHg 96%
09:00 +15°C° 0 mm 4 m/S 739 mmHg 93%
10:00 +17°C° 0 mm 4 m/S 739 mmHg 88%
11:00 +18°C° 0 mm 4 m/S 739 mmHg 85%
12:00 +19°C° 0 mm 4 m/S 739 mmHg 82%
13:00 +19°C° 0 mm 4 m/S 739 mmHg 77%
14:00 +20°C° 0 mm 4 m/S 739 mmHg 74%
15:00 +20°C° 0 mm 4 m/S 739 mmHg 75%
16:00 +20°C° 0 mm 4 m/S 739 mmHg 74%
17:00 +20°C° 0 mm 3 m/S 739 mmHg 72%
18:00 +20°C° 0 mm 2 m/S 739 mmHg 73%
19:00 +21°C° 0 mm 1 m/S 739 mmHg 73%
20:00 +20°C° 0 mm 1 m/S 739 mmHg 87%
21:00 +19°C° 0 mm 1 m/S 739 mmHg 86%
22:00 +17°C° 0 mm 2 m/S 739 mmHg 91%
23:00 +17°C° 0 mm 2 m/S 739 mmHg 92%

übermorgen, 9 Juli, Donnerstag

Zeit Temperatur Niederschläge Wind Luftdruck Luftfeuchtigkeit
00:00 +16°C° 0 mm 2 m/S 739 mmHg 96%
01:00 +16°C° 0 mm 2 m/S 739 mmHg 95%
02:00 +15°C° 0 mm 2 m/S 739 mmHg 97%
03:00 +15°C° 0 mm 2 m/S 739 mmHg 97%
04:00 +15°C° 0 mm 2 m/S 738 mmHg 97%
05:00 +15°C° 0 mm 2 m/S 739 mmHg 97%
06:00 +15°C° 0 mm 2 m/S 739 mmHg 96%
07:00 +18°C° 0 mm 1 m/S 739 mmHg 95%
08:00 +18°C° 0 mm 1 m/S 739 mmHg 96%
09:00 +16°C° 0 mm 0 m/S 740 mmHg 97%
10:00 +18°C° 1.7 mm 1 m/S 740 mmHg 100%
11:00 +18°C° 1.3 mm 1 m/S 740 mmHg 99%
12:00 +18°C° 0.6 mm 1 m/S 741 mmHg 98%
13:00 +18°C° 0 mm 3 m/S 741 mmHg 97%
14:00 +19°C° 0 mm 3 m/S 741 mmHg 92%
15:00 +21°C° 0 mm 1 m/S 740 mmHg 87%
16:00 +21°C° 0 mm 2 m/S 740 mmHg 82%
17:00 +21°C° 0 mm 2 m/S 740 mmHg 80%
18:00 +21°C° 0 mm 2 m/S 740 mmHg 81%
19:00 +21°C° 0 mm 2 m/S 740 mmHg 84%
20:00 +21°C° 0 mm 1 m/S 741 mmHg 92%
21:00 +20°C° 0 mm 1 m/S 741 mmHg 90%
22:00 +20°C° 0 mm 1 m/S 741 mmHg 87%
23:00 +19°C° 0 mm 1 m/S 741 mmHg 86%

10 Juli, Freitag

Zeit Temperatur Niederschläge Wind Luftdruck Luftfeuchtigkeit
00:00 +19°C° 0 mm 1 m/S 741 mmHg 89%
01:00 +18°C° 0 mm 1 m/S 741 mmHg 93%
02:00 +18°C° 0 mm 1 m/S 741 mmHg 97%
03:00 +16°C° 0 mm 1 m/S 741 mmHg 98%
04:00 +16°C° 0 mm 1 m/S 741 mmHg 99%
05:00 +16°C° 0 mm 1 m/S 741 mmHg 100%
06:00 +16°C° 0 mm 1 m/S 741 mmHg 100%
07:00 +18°C° 0 mm 1 m/S 741 mmHg 97%
08:00 +19°C° 0 mm 2 m/S 741 mmHg 96%
09:00 +20°C° 0 mm 3 m/S 741 mmHg 94%
10:00 +21°C° 0 mm 3 m/S 742 mmHg 91%
11:00 +22°C° 0 mm 3 m/S 741 mmHg 88%
12:00 +24°C° 0 mm 3 m/S 741 mmHg 85%
13:00 +24°C° 0 mm 3 m/S 741 mmHg 84%
14:00 +25°C° 0 mm 3 m/S 741 mmHg 83%
15:00 +25°C° 0 mm 3 m/S 740 mmHg 82%
16:00 +25°C° 0 mm 4 m/S 739 mmHg 83%
17:00 +25°C° 0 mm 4 m/S 739 mmHg 84%
18:00 +25°C° 0 mm 4 m/S 739 mmHg 87%
19:00 +25°C° 0 mm 4 m/S 739 mmHg 88%
20:00 +24°C° 0 mm 3 m/S 739 mmHg 95%
21:00 +22°C° 0 mm 3 m/S 739 mmHg 96%
22:00 +21°C° 0 mm 3 m/S 739 mmHg 97%
23:00 +21°C° 0 mm 3 m/S 739 mmHg 98%

11 Juli, Samstag

Zeit Temperatur Niederschläge Wind Luftdruck Luftfeuchtigkeit
00:00 +20°C° 0 mm 3 m/S 739 mmHg 99%
01:00 +20°C° 0 mm 3 m/S 738 mmHg 100%
02:00 +20°C° 0 mm 3 m/S 738 mmHg 100%
03:00 +19°C° 0 mm 2 m/S 738 mmHg 100%
04:00 +19°C° 0 mm 2 m/S 738 mmHg 100%
05:00 +19°C° 0 mm 2 m/S 738 mmHg 100%
06:00 +19°C° 0 mm 2 m/S 738 mmHg 100%
07:00 +20°C° 0 mm 1 m/S 738 mmHg 100%
08:00 +19°C° 0 mm 0 m/S 738 mmHg 100%
09:00 +19°C° 0 mm 0 m/S 738 mmHg 100%
10:00 +19°C° 0 mm 0 m/S 739 mmHg 100%
11:00 +23°C° 0 mm 1 m/S 739 mmHg 96%
12:00 +25°C° 0 mm 1 m/S 739 mmHg 92%
13:00 +27°C° 0 mm 1 m/S 739 mmHg 85%
14:00 +27°C° 0 mm 1 m/S 738 mmHg 80%
15:00 +28°C° 0 mm 1 m/S 738 mmHg 73%
16:00 +24°C° 0.3 mm 7 m/S 738 mmHg 89%
17:00 +23°C° 0.8 mm 4 m/S 738 mmHg 90%
18:00 +23°C° 0 mm 6 m/S 738 mmHg 94%
19:00 +21°C° 0 mm 6 m/S 738 mmHg 96%
20:00 +18°C° 0 mm 7 m/S 739 mmHg 95%
21:00 +17°C° 0 mm 6 m/S 739 mmHg 96%
22:00 +17°C° 0 mm 5 m/S 739 mmHg 96%
23:00 +16°C° 0 mm 6 m/S 739 mmHg 96%

12 Juli, Sonntag

Zeit Temperatur Niederschläge Wind Luftdruck Luftfeuchtigkeit
00:00 +15°C° 0 mm 5 m/S 739 mmHg 94%
01:00 +14°C° 0 mm 6 m/S 739 mmHg 95%
02:00 +14°C° 0 mm 6 m/S 739 mmHg 98%
03:00 +13°C° 1.3 mm 5 m/S 739 mmHg 99%
04:00 +13°C° 0.8 mm 3 m/S 739 mmHg 100%
05:00 +13°C° 0.2 mm 3 m/S 740 mmHg 100%
06:00 +14°C° 0.2 mm 4 m/S 740 mmHg 99%
07:00 +14°C° 0 mm 4 m/S 740 mmHg 97%
08:00 +14°C° 0 mm 4 m/S 741 mmHg 97%
09:00 +14°C° 0 mm 4 m/S 741 mmHg 96%
10:00 +14°C° 0 mm 4 m/S 741 mmHg 94%
11:00 +16°C° 0 mm 3 m/S 742 mmHg 92%
12:00 +17°C° 0 mm 3 m/S 742 mmHg 91%
13:00 +19°C° 0.3 mm 3 m/S 741 mmHg 88%
14:00 +20°C° 0 mm 4 m/S 741 mmHg 78%
15:00 +20°C° 0 mm 5 m/S 741 mmHg 76%
16:00 +20°C° 0 mm 4 m/S 741 mmHg 76%
17:00 +20°C° 0 mm 4 m/S 741 mmHg 78%
18:00 +19°C° 0 mm 2 m/S 741 mmHg 83%
19:00 +19°C° 0 mm 3 m/S 741 mmHg 83%
20:00 +18°C° 0 mm 2 m/S 741 mmHg 91%
21:00 +17°C° 0 mm 3 m/S 741 mmHg 94%
22:00 +16°C° 0 mm 3 m/S 741 mmHg 95%
23:00 +14°C° 0 mm 3 m/S 742 mmHg 97%
Mehr zeigen